BLL1DF EDDC-EGNX

Flight info

Callsign BLL1DF
Flight time 1h 34m
Altitude 40000
Route OSKAN7W OSKAN M748 BOLBO L986 POVEL DCT GALSO Q63 ERING L179 LAM L610 HEMEL
Aircraft A333/H-SDE3GHIJ2J3J5M1RVWXY/LB2D1

Departure

Time 2026-05-07 14:29
Airport Dresden Airport (EDDC)

Arrival

Time 2026-05-07 16:03
Airport East Midlands Airport (EGNX)
Time Latitude Longitude Altitude Speed Heading
2026-05-07 14:01 51.12785 13.76687 728 ft 0 kts 40°
2026-05-07 14:17 51.12770 13.76667 750 ft 4 kts 40°
2026-05-07 14:18 51.12750 13.76639 751 ft 4 kts 40°
2026-05-07 14:18 51.12733 13.76615 751 ft 4 kts 31°
2026-05-07 14:18 51.12711 13.76606 751 ft 4 kts 332°
2026-05-07 14:18 51.12693 13.76634 752 ft 4 kts 303°
2026-05-07 14:19 51.12682 13.76657 752 ft 1 kts 311°
2026-05-07 14:21 51.12692 13.76639 752 ft 8 kts 311°
2026-05-07 14:21 51.12732 13.76567 751 ft 8 kts 311°
2026-05-07 14:21 51.12766 13.76509 750 ft 6 kts 317°
2026-05-07 14:22 51.12830 13.76463 749 ft 15 kts
2026-05-07 14:22 51.12909 13.76554 748 ft 13 kts 41°
2026-05-07 14:22 51.12966 13.76633 749 ft 9 kts 41°
2026-05-07 14:22 51.13018 13.76705 746 ft 13 kts 40°
2026-05-07 14:23 51.13107 13.76826 743 ft 19 kts 41°
2026-05-07 14:23 51.13204 13.76962 738 ft 19 kts 42°
2026-05-07 14:23 51.13301 13.77095 737 ft 18 kts 40°
2026-05-07 14:23 51.13391 13.77219 737 ft 17 kts 41°
2026-05-07 14:24 51.13473 13.77332 735 ft 14 kts 41°
2026-05-07 14:24 51.13542 13.77428 732 ft 13 kts 41°
2026-05-07 14:24 51.13604 13.77513 731 ft 10 kts 40°
2026-05-07 14:24 51.13659 13.77588 729 ft 14 kts 40°
2026-05-07 14:25 51.13759 13.77726 725 ft 22 kts 41°
2026-05-07 14:25 51.13869 13.77877 720 ft 20 kts 40°
2026-05-07 14:25 51.13968 13.78012 720 ft 17 kts 41°
2026-05-07 14:25 51.14047 13.78122 719 ft 14 kts 40°
2026-05-07 14:26 51.14118 13.78219 718 ft 11 kts 41°
2026-05-07 14:26 51.14170 13.78289 719 ft 9 kts 40°
2026-05-07 14:26 51.14214 13.78347 717 ft 8 kts 33°
2026-05-07 14:26 51.14254 13.78354 717 ft 4 kts 343°
2026-05-07 14:27 51.14258 13.78350 716 ft 0 kts 333°
2026-05-07 14:27 51.14270 13.78337 717 ft 9 kts 322°
2026-05-07 14:27 51.14341 13.78219 715 ft 16 kts 311°
2026-05-07 14:28 51.14372 13.78102 717 ft 7 kts 254°
2026-05-07 14:28 51.14301 13.77989 723 ft 30 kts 222°
2026-05-07 14:28 51.13977 13.77543 730 ft 91 kts 220°
2026-05-07 14:28 51.13356 13.76689 740 ft 143 kts 221°
2026-05-07 14:29 51.12519 13.75551 1101 ft 162 kts 224°
2026-05-07 14:29 51.11694 13.74355 1882 ft 160 kts 225°
2026-05-07 14:29 51.10806 13.73106 2305 ft 183 kts 223°
2026-05-07 14:29 51.09862 13.71531 2612 ft 212 kts 239°
2026-05-07 14:30 51.09505 13.69143 2838 ft 239 kts 281°
2026-05-07 14:30 51.10231 13.66738 3403 ft 249 kts 311°
2026-05-07 14:30 51.11416 13.64698 4288 ft 252 kts 313°
2026-05-07 14:30 51.12763 13.62879 5199 ft 259 kts 328°
2026-05-07 14:31 51.14530 13.62151 5986 ft 271 kts 358°
2026-05-07 14:31 51.16437 13.62393 6795 ft 277 kts
2026-05-07 14:31 51.18362 13.62809 7645 ft 280 kts
2026-05-07 14:31 51.20314 13.63034 8484 ft 283 kts 360°
2026-05-07 14:32 51.22301 13.63071 9306 ft 288 kts 358°
2026-05-07 14:32 51.24320 13.63060 10103 ft 292 kts 357°
2026-05-07 14:32 51.26413 13.63033 10545 ft 311 kts 358°
2026-05-07 14:32 51.28628 13.63001 10868 ft 333 kts 358°
2026-05-07 14:33 51.30995 13.62967 11369 ft 346 kts 358°
2026-05-07 14:33 51.33425 13.62936 12083 ft 351 kts 358°
2026-05-07 14:33 51.35883 13.62904 12849 ft 356 kts 358°
2026-05-07 14:33 51.38367 13.62871 13612 ft 360 kts 358°
2026-05-07 14:34 51.40884 13.62836 14353 ft 364 kts 358°
2026-05-07 14:34 51.43428 13.62715 15065 ft 367 kts 353°
2026-05-07 14:34 51.45921 13.61822 15731 ft 368 kts 336°
2026-05-07 14:34 51.48164 13.59846 16431 ft 369 kts 323°
2026-05-07 14:35 51.50217 13.57359 17109 ft 372 kts 319°
2026-05-07 14:35 51.52189 13.54627 17759 ft 376 kts 316°
2026-05-07 14:35 51.54128 13.51776 18413 ft 379 kts 315°
2026-05-07 14:35 51.56065 13.48883 18973 ft 382 kts 315°
2026-05-07 14:36 51.58027 13.45974 19554 ft 385 kts 316°
2026-05-07 14:36 51.60015 13.43064 20121 ft 388 kts 316°
2026-05-07 14:36 51.62033 13.40147 20706 ft 391 kts 317°
2026-05-07 14:36 51.64070 13.37225 21302 ft 394 kts 317°
2026-05-07 14:37 51.66126 13.34285 21890 ft 397 kts 318°
2026-05-07 14:37 51.70283 13.28341 23024 ft 403 kts 318°
2026-05-07 14:37 51.72386 13.25324 23563 ft 406 kts 318°
2026-05-07 14:38 51.74500 13.22288 24014 ft 409 kts 318°
2026-05-07 14:38 51.76563 13.19115 24432 ft 411 kts 313°
2026-05-07 14:38 51.78355 13.15495 24916 ft 413 kts 304°
2026-05-07 14:38 51.79740 13.11476 25321 ft 417 kts 294°
2026-05-07 14:39 51.80737 13.06996 25707 ft 420 kts 288°
2026-05-07 14:39 51.81532 13.02500 26111 ft 423 kts 285°
2026-05-07 14:39 51.82248 12.97880 26492 ft 425 kts 284°
2026-05-07 14:39 51.82926 12.93216 26870 ft 428 kts 284°
2026-05-07 14:40 51.83600 12.88499 27286 ft 431 kts 284°
2026-05-07 14:40 51.84283 12.83752 27683 ft 434 kts 284°
2026-05-07 14:40 51.84978 12.78988 28119 ft 436 kts 284°
2026-05-07 14:40 51.85686 12.74191 28539 ft 439 kts 284°
2026-05-07 14:41 51.86400 12.69381 28980 ft 441 kts 284°
2026-05-07 14:41 51.87123 12.64529 29383 ft 444 kts 284°
2026-05-07 14:41 51.87849 12.59654 29781 ft 447 kts 284°
2026-05-07 14:41 51.88578 12.54748 30141 ft 450 kts 284°
2026-05-07 14:42 51.89308 12.49815 30442 ft 452 kts 284°
2026-05-07 14:42 51.90041 12.44847 30749 ft 455 kts 284°
2026-05-07 14:42 51.90779 12.39858 31068 ft 456 kts 284°
2026-05-07 14:42 51.91518 12.34851 31345 ft 459 kts 284°
2026-05-07 14:43 51.92253 12.29874 31649 ft 461 kts 283°
2026-05-07 14:43 51.92998 12.24810 31889 ft 465 kts 283°
2026-05-07 14:43 51.93758 12.19619 32178 ft 467 kts 283°
2026-05-07 14:43 51.94500 12.14510 32655 ft 465 kts 283°
2026-05-07 14:44 51.95225 12.09491 33186 ft 461 kts 283°
2026-05-07 14:44 51.95961 12.04368 33591 ft 461 kts 283°
2026-05-07 14:44 51.96686 11.99304 33978 ft 460 kts 282°
2026-05-07 14:44 51.97408 11.94250 34297 ft 460 kts 282°
2026-05-07 14:45 51.98125 11.89205 34641 ft 459 kts 282°
2026-05-07 14:45 51.98839 11.84173 34995 ft 458 kts 282°
2026-05-07 14:45 51.99551 11.79142 35290 ft 457 kts 282°
2026-05-07 14:45 52.00263 11.74117 35587 ft 457 kts 282°
2026-05-07 14:46 52.00977 11.69080 35861 ft 457 kts 282°
2026-05-07 14:46 52.01689 11.64047 36129 ft 457 kts 282°
2026-05-07 14:46 52.02396 11.59029 36404 ft 457 kts 282°
2026-05-07 14:46 52.03094 11.54062 36675 ft 456 kts 282°
2026-05-07 14:47 52.03798 11.49034 36937 ft 456 kts 281°
2026-05-07 14:47 52.04500 11.44006 37191 ft 456 kts 281°
2026-05-07 14:47 52.05198 11.38982 37457 ft 456 kts 281°
2026-05-07 14:47 52.05893 11.33969 37740 ft 455 kts 281°
2026-05-07 14:48 52.06586 11.28944 38013 ft 455 kts 281°
2026-05-07 14:48 52.07276 11.23932 38304 ft 454 kts 281°
2026-05-07 14:48 52.07962 11.18925 38601 ft 454 kts 281°
2026-05-07 14:48 52.08647 11.13909 38841 ft 454 kts 281°
2026-05-07 14:49 52.09109 11.10525 38984 ft 454 kts 281°
2026-05-07 14:49 52.09782 11.05571 39196 ft 454 kts 281°
2026-05-07 14:49 52.10460 11.00565 39383 ft 454 kts 281°
2026-05-07 14:49 52.11137 10.95543 39569 ft 454 kts 281°
2026-05-07 14:50 52.11812 10.90523 39742 ft 454 kts 281°
2026-05-07 14:50 52.12428 10.85490 39914 ft 453 kts 276°
2026-05-07 14:50 52.12685 10.80396 40037 ft 452 kts 270°
2026-05-07 14:50 52.12707 10.75261 40075 ft 455 kts 268°
2026-05-07 14:51 52.12551 10.64903 40078 ft 459 kts 266°
2026-05-07 14:51 52.12304 10.54514 40077 ft 458 kts 266°
2026-05-07 14:52 52.12056 10.44165 40075 ft 458 kts 266°
2026-05-07 14:52 52.11814 10.33810 40076 ft 458 kts 266°
2026-05-07 14:53 52.11570 10.23448 40073 ft 458 kts 266°
2026-05-07 14:53 52.11318 10.13086 40073 ft 458 kts 266°
2026-05-07 14:54 52.11057 10.02725 40073 ft 458 kts 266°
2026-05-07 14:54 52.10785 9.92364 40072 ft 458 kts 266°
2026-05-07 14:55 52.10507 9.82072 40080 ft 458 kts 266°
2026-05-07 14:55 52.10217 9.71712 40074 ft 456 kts 266°
2026-05-07 14:56 52.09922 9.61448 40075 ft 453 kts 266°
2026-05-07 14:56 52.09618 9.51214 40076 ft 453 kts 266°
2026-05-07 14:57 52.09306 9.40977 40070 ft 453 kts 266°
2026-05-07 14:57 52.08984 9.30738 40072 ft 453 kts 266°
2026-05-07 14:58 52.08653 9.20504 40075 ft 453 kts 266°
2026-05-07 14:58 52.08314 9.10266 40075 ft 453 kts 265°
2026-05-07 14:59 52.07966 9.00036 40075 ft 453 kts 265°
2026-05-07 14:59 52.07609 8.89809 40076 ft 453 kts 265°
2026-05-07 15:00 52.07245 8.79649 40080 ft 453 kts 265°
2026-05-07 15:00 52.06871 8.69425 40080 ft 453 kts 265°
2026-05-07 15:01 52.06488 8.59201 40075 ft 453 kts 265°
2026-05-07 15:01 52.06096 8.48985 40075 ft 453 kts 265°
2026-05-07 15:02 52.05695 8.38762 40076 ft 453 kts 265°
2026-05-07 15:02 52.05286 8.28542 40075 ft 453 kts 265°
2026-05-07 15:03 52.04866 8.18316 40077 ft 453 kts 265°
2026-05-07 15:03 52.04439 8.08103 40074 ft 453 kts 265°
2026-05-07 15:04 52.04004 7.97892 40073 ft 453 kts 265°
2026-05-07 15:04 52.03559 7.87686 40079 ft 453 kts 265°
2026-05-07 15:05 52.03105 7.77463 40075 ft 453 kts 265°
2026-05-07 15:05 52.02645 7.67314 40071 ft 453 kts 264°
2026-05-07 15:06 52.02171 7.57047 40070 ft 453 kts 264°
2026-05-07 15:06 52.01694 7.46905 40070 ft 453 kts 264°
2026-05-07 15:07 52.01204 7.36695 40063 ft 453 kts 264°
2026-05-07 15:07 52.00706 7.26498 40064 ft 453 kts 264°
2026-05-07 15:08 52.00199 7.16298 40061 ft 453 kts 264°
2026-05-07 15:08 51.99683 7.06105 40062 ft 453 kts 264°
2026-05-07 15:09 51.99158 6.95907 40054 ft 453 kts 264°
2026-05-07 15:09 51.98624 6.85724 40056 ft 453 kts 264°
2026-05-07 15:10 51.98082 6.75531 40051 ft 453 kts 264°
2026-05-07 15:10 51.97530 6.65344 40049 ft 453 kts 264°
2026-05-07 15:11 51.96970 6.55168 40045 ft 453 kts 264°
2026-05-07 15:11 51.96404 6.45048 40045 ft 453 kts 264°
2026-05-07 15:12 51.95823 6.34814 40053 ft 453 kts 263°
2026-05-07 15:12 51.95238 6.24664 40038 ft 452 kts 263°
2026-05-07 15:13 51.94648 6.14577 40041 ft 452 kts 263°
2026-05-07 15:13 51.94045 6.04432 40041 ft 452 kts 263°
2026-05-07 15:14 51.93430 5.94229 40056 ft 452 kts 263°
2026-05-07 15:14 51.92813 5.84149 40059 ft 452 kts 263°
2026-05-07 15:15 51.92185 5.74021 40047 ft 452 kts 263°
2026-05-07 15:15 51.91548 5.63899 40055 ft 452 kts 263°
2026-05-07 15:16 51.90902 5.53781 40061 ft 452 kts 263°
2026-05-07 15:16 51.90249 5.43680 40056 ft 451 kts 263°
2026-05-07 15:17 51.89587 5.33574 40070 ft 451 kts 263°
2026-05-07 15:17 51.88917 5.23474 40066 ft 451 kts 263°
2026-05-07 15:18 51.88239 5.13387 40068 ft 451 kts 263°
2026-05-07 15:18 51.87552 5.03307 40073 ft 451 kts 263°
2026-05-07 15:19 51.86857 4.93231 40063 ft 451 kts 262°
2026-05-07 15:19 51.86154 4.83159 40071 ft 451 kts 262°
2026-05-07 15:20 51.85442 4.73080 40074 ft 451 kts 262°
2026-05-07 15:20 51.84721 4.63016 40074 ft 451 kts 262°
2026-05-07 15:21 51.83993 4.52963 40071 ft 450 kts 262°
2026-05-07 15:21 51.83255 4.42898 40074 ft 450 kts 262°
2026-05-07 15:22 51.82509 4.32838 40068 ft 450 kts 262°
2026-05-07 15:22 51.81754 4.22784 40070 ft 450 kts 262°
2026-05-07 15:23 51.80991 4.12736 40075 ft 450 kts 262°
2026-05-07 15:23 51.80220 4.02693 40073 ft 450 kts 262°
2026-05-07 15:24 51.79439 3.92647 40079 ft 450 kts 262°
2026-05-07 15:24 51.78650 3.82610 40084 ft 450 kts 262°
2026-05-07 15:25 51.77853 3.72574 40083 ft 450 kts 262°
2026-05-07 15:25 51.77048 3.62555 40092 ft 450 kts 261°
2026-05-07 15:26 51.76237 3.52585 40089 ft 450 kts 261°
2026-05-07 15:26 51.75414 3.42560 40084 ft 450 kts 261°
2026-05-07 15:27 51.74583 3.32549 40084 ft 450 kts 261°
2026-05-07 15:27 51.73744 3.22547 40081 ft 450 kts 261°
2026-05-07 15:28 51.72895 3.12548 40082 ft 450 kts 261°
2026-05-07 15:28 51.72034 3.02547 40079 ft 450 kts 261°
2026-05-07 15:29 51.71165 2.92563 40081 ft 450 kts 261°
2026-05-07 15:29 51.70287 2.82579 40080 ft 450 kts 261°
2026-05-07 15:30 51.69400 2.72593 40084 ft 450 kts 261°
2026-05-07 15:30 51.68508 2.62622 40086 ft 450 kts 261°
2026-05-07 15:31 51.67610 2.52641 40079 ft 450 kts 261°
2026-05-07 15:31 51.66704 2.42679 40077 ft 450 kts 261°
2026-05-07 15:32 51.65794 2.32788 40078 ft 449 kts 261°
2026-05-07 15:32 51.64870 2.22839 40081 ft 449 kts 260°
2026-05-07 15:33 51.63938 2.12902 40080 ft 449 kts 260°
2026-05-07 15:33 51.63012 2.02967 40079 ft 449 kts 261°
2026-05-07 15:34 51.62245 1.94697 40082 ft 449 kts 260°
2026-05-07 15:34 51.61318 1.84772 40083 ft 449 kts 260°
2026-05-07 15:35 51.60379 1.74836 40076 ft 449 kts 260°
2026-05-07 15:35 51.59445 1.64914 40078 ft 449 kts 262°
2026-05-07 15:36 51.59404 1.54881 40075 ft 451 kts 277°
2026-05-07 15:36 51.61217 1.45216 40076 ft 454 kts 292°
2026-05-07 15:37 51.62519 1.40586 39920 ft 454 kts 293°
2026-05-07 15:37 51.63853 1.35975 39681 ft 453 kts 293°
2026-05-07 15:37 51.65186 1.31374 39455 ft 453 kts 293°
2026-05-07 15:37 51.66514 1.26774 39230 ft 453 kts 293°
2026-05-07 15:38 51.67842 1.22157 39001 ft 453 kts 293°
2026-05-07 15:38 51.69159 1.17565 38614 ft 451 kts 293°
2026-05-07 15:38 51.70460 1.13018 38009 ft 451 kts 293°
2026-05-07 15:38 51.71769 1.08430 37457 ft 450 kts 292°
2026-05-07 15:39 51.73074 1.03849 36892 ft 450 kts 292°
2026-05-07 15:39 51.74377 0.99266 36336 ft 449 kts 292°
2026-05-07 15:39 51.75679 0.94678 35721 ft 449 kts 292°
2026-05-07 15:39 51.76980 0.90082 35064 ft 451 kts 292°
2026-05-07 15:40 51.78304 0.85395 34390 ft 453 kts 292°
2026-05-07 15:40 51.79595 0.80817 33663 ft 455 kts 292°
2026-05-07 15:40 51.80906 0.76159 32930 ft 455 kts 292°
2026-05-07 15:40 51.82214 0.71499 32224 ft 456 kts 293°
2026-05-07 15:41 51.83521 0.66839 31629 ft 454 kts 293°
2026-05-07 15:41 51.84816 0.62215 31165 ft 449 kts 292°
2026-05-07 15:41 51.86095 0.57636 30687 ft 445 kts 292°
2026-05-07 15:41 51.87359 0.53100 30186 ft 441 kts 292°
2026-05-07 15:42 51.88616 0.48582 29630 ft 437 kts 292°
2026-05-07 15:42 51.89856 0.44117 29130 ft 432 kts 292°
2026-05-07 15:42 51.91078 0.39703 28632 ft 428 kts 292°
2026-05-07 15:42 51.92287 0.35332 28129 ft 423 kts 292°
2026-05-07 15:43 51.93483 0.31000 27651 ft 419 kts 292°
2026-05-07 15:43 51.94667 0.26702 27164 ft 415 kts 292°
2026-05-07 15:43 51.95839 0.22437 26500 ft 415 kts 292°
2026-05-07 15:43 51.97024 0.18116 25563 ft 422 kts 292°
2026-05-07 15:44 51.98223 0.13739 24767 ft 426 kts 292°
2026-05-07 15:44 51.99421 0.09359 24061 ft 421 kts 292°
2026-05-07 15:44 52.00599 0.05048 23027 ft 416 kts 292°
2026-05-07 15:44 52.01761 0.00784 21935 ft 410 kts 292°
2026-05-07 15:45 52.02908 -0.03435 20942 ft 404 kts 292°
2026-05-07 15:45 52.04032 -0.07574 20174 ft 394 kts 292°
2026-05-07 15:45 52.05114 -0.11564 19717 ft 378 kts 292°
2026-05-07 15:45 52.06156 -0.15413 19266 ft 367 kts 292°
2026-05-07 15:46 52.08190 -0.22958 18378 ft 364 kts 292°
2026-05-07 15:46 52.09200 -0.26713 17897 ft 362 kts 291°
2026-05-07 15:46 52.10189 -0.30395 17438 ft 359 kts 291°
2026-05-07 15:47 52.11184 -0.34104 16985 ft 356 kts 291°
2026-05-07 15:47 52.12169 -0.37780 16547 ft 354 kts 291°
2026-05-07 15:47 52.13148 -0.41441 16110 ft 351 kts 291°
2026-05-07 15:47 52.14120 -0.45083 15679 ft 350 kts 291°
2026-05-07 15:48 52.15085 -0.48705 15206 ft 348 kts 291°
2026-05-07 15:48 52.16048 -0.52320 14766 ft 347 kts 291°
2026-05-07 15:48 52.17002 -0.55913 14342 ft 345 kts 291°
2026-05-07 15:48 52.17955 -0.59503 13916 ft 344 kts 291°
2026-05-07 15:49 52.18901 -0.63075 13427 ft 343 kts 291°
2026-05-07 15:49 52.19845 -0.66641 12977 ft 341 kts 291°
2026-05-07 15:49 52.20780 -0.70182 12538 ft 339 kts 291°
2026-05-07 15:49 52.21705 -0.73691 12107 ft 336 kts 291°
2026-05-07 15:50 52.22625 -0.77186 11695 ft 334 kts 291°
2026-05-07 15:50 52.23536 -0.80648 11295 ft 331 kts 291°
2026-05-07 15:50 52.24607 -0.83961 10919 ft 329 kts 304°
2026-05-07 15:50 52.26191 -0.86555 10820 ft 317 kts 322°
2026-05-07 15:51 52.27995 -0.88504 10737 ft 304 kts 327°
2026-05-07 15:51 52.29773 -0.90262 10610 ft 294 kts 327°
2026-05-07 15:51 52.31501 -0.91955 10473 ft 287 kts 327°
2026-05-07 15:51 52.33198 -0.93624 10249 ft 284 kts 327°
2026-05-07 15:52 52.34904 -0.95311 9888 ft 287 kts 327°
2026-05-07 15:52 52.36614 -0.97008 9523 ft 288 kts 327°
2026-05-07 15:52 52.38317 -0.98699 9305 ft 283 kts 327°
2026-05-07 15:52 52.39943 -1.00314 9242 ft 272 kts 327°
2026-05-07 15:53 52.41594 -1.01720 9120 ft 264 kts 335°
2026-05-07 15:53 52.43264 -1.02848 8993 ft 255 kts 337°
2026-05-07 15:53 52.44922 -1.03913 8670 ft 256 kts 337°
2026-05-07 15:53 52.46575 -1.04970 8382 ft 254 kts 337°
2026-05-07 15:54 52.48215 -1.06022 8127 ft 252 kts 337°
2026-05-07 15:54 52.49753 -1.07353 8021 ft 249 kts 322°
2026-05-07 15:54 52.51087 -1.09162 8015 ft 249 kts 316°
2026-05-07 15:54 52.52367 -1.11082 8016 ft 249 kts 315°
2026-05-07 15:55 52.53641 -1.13021 8013 ft 249 kts 315°
2026-05-07 15:55 52.54913 -1.14956 8007 ft 249 kts 315°
2026-05-07 15:55 52.56181 -1.16879 7943 ft 245 kts 315°
2026-05-07 15:55 52.57435 -1.18778 7463 ft 247 kts 315°
2026-05-07 15:56 52.58704 -1.20702 6945 ft 249 kts 315°
2026-05-07 15:56 52.59969 -1.22616 6564 ft 245 kts 316°
2026-05-07 15:56 52.61218 -1.24509 6116 ft 244 kts 316°
2026-05-07 15:56 52.62466 -1.26403 5649 ft 244 kts 316°
2026-05-07 15:57 52.63714 -1.28295 5143 ft 244 kts 316°
2026-05-07 15:57 52.64958 -1.30184 4743 ft 242 kts 316°
2026-05-07 15:57 52.66191 -1.32058 4292 ft 241 kts 316°
2026-05-07 15:57 52.67417 -1.33928 3996 ft 239 kts 316°
2026-05-07 15:58 52.68642 -1.35790 3720 ft 240 kts 317°
2026-05-07 15:58 52.69860 -1.37646 3436 ft 236 kts 317°
2026-05-07 15:58 52.71066 -1.39483 3155 ft 237 kts 316°
2026-05-07 15:58 52.72273 -1.41330 2893 ft 236 kts 316°
2026-05-07 15:59 52.73474 -1.43163 2662 ft 234 kts 316°
2026-05-07 15:59 52.74672 -1.44995 2400 ft 235 kts 316°
2026-05-07 15:59 52.75873 -1.46828 2138 ft 235 kts 316°
2026-05-07 15:59 52.77063 -1.48644 1982 ft 232 kts 316°
2026-05-07 16:00 52.78282 -1.50371 1962 ft 231 kts 326°
2026-05-07 16:00 52.79730 -1.51267 1981 ft 216 kts 356°
2026-05-07 16:00 52.81127 -1.50906 1975 ft 194 kts 25°
2026-05-07 16:00 52.82063 -1.49536 1972 ft 171 kts 60°
2026-05-07 16:01 52.82531 -1.47815 1896 ft 159 kts 73°
2026-05-07 16:01 52.82808 -1.46125 1721 ft 146 kts 84°
2026-05-07 16:01 52.82859 -1.44510 1510 ft 136 kts 91°
2026-05-07 16:01 52.82912 -1.42967 1324 ft 134 kts 89°
2026-05-07 16:02 52.82935 -1.41437 1147 ft 133 kts 91°
2026-05-07 16:02 52.82966 -1.39908 955 ft 133 kts 91°
2026-05-07 16:02 52.82996 -1.38389 788 ft 132 kts 91°
2026-05-07 16:02 52.83024 -1.36884 621 ft 130 kts 90°
2026-05-07 16:03 52.83054 -1.35383 408 ft 129 kts 90°
2026-05-07 16:03 52.83079 -1.33926 315 ft 120 kts 88°
2026-05-07 16:03 52.83097 -1.32915 309 ft 48 kts 88°
2026-05-07 16:03 52.83101 -1.32706 305 ft 10 kts 88°
2026-05-07 16:04 52.83074 -1.32634 308 ft 7 kts 175°
2026-05-07 16:04 52.83028 -1.32672 311 ft 12 kts 217°
2026-05-07 16:04 52.82959 -1.32776 311 ft 14 kts 225°
2026-05-07 16:04 52.82929 -1.32925 311 ft 15 kts 266°
2026-05-07 16:05 52.82926 -1.33098 312 ft 16 kts 267°
2026-05-07 16:05 52.82921 -1.33283 313 ft 17 kts 268°
2026-05-07 16:05 52.82918 -1.33479 314 ft 18 kts 269°
2026-05-07 16:05 52.82915 -1.33686 314 ft 19 kts 268°
2026-05-07 16:06 52.82911 -1.33904 314 ft 19 kts 268°
2026-05-07 16:06 52.82907 -1.34107 314 ft 13 kts 269°
2026-05-07 16:06 52.82905 -1.34258 315 ft 14 kts 269°
2026-05-07 16:06 52.82891 -1.34397 316 ft 10 kts 221°
2026-05-07 16:07 52.82839 -1.34471 317 ft 10 kts 249°
2026-05-07 16:07 52.82831 -1.34593 317 ft 11 kts 268°
2026-05-07 16:07 52.82828 -1.34727 318 ft 8 kts 267°
2026-05-07 16:07 52.82807 -1.34765 317 ft 4 kts 202°
2026-05-07 16:08 52.82776 -1.34771 318 ft 4 kts 180°
2026-05-07 16:08 52.82749 -1.34770 318 ft 4 kts 179°
2026-05-07 16:08 52.82743 -1.34770 318 ft 0 kts 179°